Location: Mermaid+Beach
(28.0410°S, 153.4380°E)
Time: 00:36:55
(UTC+10:00)

ISS - Visible Passes

Search period start: 29 May 2017 00:00
Search period end: 08 June 2017 00:00
Orbit: 402 x 408 km, 51.6° (Epoch: 28 May)

Date Brightness Start Highest point End Pass type
(mag) Time Alt. Az. Time Alt. Az. Time Alt. Az.
30 May -3.6 05:24:31 10° NW 05:27:46 72° NE 05:31:03 10° SE visible
31 May -1.9 04:35:21 27° NE 04:35:48 28° NE 04:38:42 10° ESE visible
01 Jun -3.1 05:19:53 33° SW 05:20:07 33° SW 05:23:10 10° SSE visible
02 Jun -0.8 04:31:06 12° SE 04:31:06 12° SE 04:31:19 10° SE visible
